Regional Weather Roundup
Issued by NWS Green Bay, WI

Home | Current Version | Previous Version | Graphics & Text | Print | Product List | Glossary Off
Versions: 1 2 3 4 5 6 7 8 9 10 11 12 13 14 15 16 17 18 19 20 21 22 23 24 25 26 27 28 29 30 31 32 33 34 35 36 37 38 39 40 41 42 43 44 45 46 47 48 49 50

000
ASUS43 KGRB 262011
RWRGRB

NORTH-CENTRAL AND NORTHEAST WISCONSIN REGIONAL WEATHER ROUNDUP
NATIONAL WEATHER SERVICE GREEN BAY WI
300 PM CDT TUE JUL 26 2016

WIZ005-009-010>012-018-019-262100-
NORTH CENTRAL WISCONSIN

CITY           SKY/WX    TMP DP  RH WIND       PRES   REMARKS
IRONWOOD       MOSUNNY   82  64  54 W9        29.92S
MANITOWISH WTR SUNNY     82  63  51 W13       29.98S
ARBOR VITAE    MOSUNNY   84  62  47 W10G22    29.99S
EAGLE RIVER    SUNNY     84  58  41 SW16G25   29.98F
LAND O LAKES   PTSUNNY   85  57  38 W9G20     29.99S
RHINELANDER    SUNNY     88  61  40 W15G24    30.00F
PHILLIPS       SUNNY     85  66  51 SW12G22   29.99S
ANTIGO         SUNNY     85  66  53 SW12G17   30.02F
TOMAHAWK       SUNNY     86  62  43 SW7       30.01F
MERRILL        SUNNY     87  65  47 W16       30.01F
$$

WIZ013-073-262100-
NORTHEAST WISCONSIN

CITY           SKY/WX    TMP DP  RH WIND       PRES   REMARKS
IRON MOUNTAIN  SUNNY     90  60  36 W10       29.95F
MARINETTE      MOSUNNY  N/A N/A N/A W7G16     29.97F
OCONTO         MOSUNNY   87  68  54 SW9       29.98F HX  90
$$

WIZ017-030-035>037-045-262100-
CENTRAL WISCONSIN

CITY           SKY/WX    TMP DP  RH WIND       PRES   REMARKS
MEDFORD        SUNNY     83  66  55 SW9       30.02F
WAUSAU         SUNNY     86  62  44 W9G21     30.01F
MOSINEE        MOSUNNY   86  64  48 SW13G18   30.04F
MARSHFIELD     SUNNY     86  65  49 W12       30.03F
WISC RAPIDS    MOSUNNY   87  62  43 W9        30.04F
STEVENS POINT  SUNNY     85  64  49 W8        30.03F
WAUPACA        MOSUNNY   89  63  41 SW7       30.02F HX  90
SHAWANO        MOSUNNY   89  66  46 W9        30.00S HX  91
CLINTONVILLE   MOSUNNY   86  63  45 SW13      30.01S
WAUTOMA        PTSUNNY   87  66  49 SW9       30.03F
$$

WIZ038-039-048-051-262100-
FOX VALLEY

CITY           SKY/WX    TMP DP  RH WIND       PRES   REMARKS
NWS GREEN BAY  MOSUNNY   85  69  58 SW12      30.01F
APPLETON       MOSUNNY   84  61  45 SW10      30.01F
OSHKOSH        SUNNY     85  63  47 SW6       30.02F
FOND DU LAC    SUNNY     86  64  47 SW8       30.03F
$$

WIZ022-050-052-262100-
EAST CENTRAL WISCONSIN

CITY           SKY/WX    TMP DP  RH WIND       PRES   REMARKS
EPHRAIM        FAIR      84  67  57 SW8       29.98S
WASHINGTON ISL NOT AVBL
STURGEON BAY   SUNNY     86  67  52 SW10      29.99F
MANITOWOC      MOSUNNY   84  63  49 VRB5      30.02F
SHEBOYGAN      PTSUNNY   84  64  50 E3        30.02F
$$

LMZ563-521-522-541>543-262100-
LAKESHORE

STATION/POSITION TIME  TEMP    WIND        PRES    VSBY  WAVE
                       AIR SEA DIR/SP/G                  HT/PER
                 (UTC) (F)     (DEG/KT/KT) (MB)    (MI)  (FT/S)
SHEBOYGAN LKSHOR 2000   74     170/ 13/ 13 1016.6F
KEWAUNEE LKSHORE 1900   66     170/  9/ 12 1015.8F
NORTHPORT PIER   1900   83     190/  3/ 11 1014.9F
N MID LAKE BUOY  1950   72 71  200/ 14/ 16 1014.2F         1/ 3
CHAMBERS ISLAND  1900   82     180/  6/ 13 1014.9F
MENOMINEE LKSHOR 1900   81     170/ 13/ 15 1014.3F
$$




USA.gov is the U.S. government's official web portal to all federal, state and local government web resources and services.